OBJECT C

Satellite information

Favourite Embed

Satellite Type and Status

UNKNOWNIN ORBIT

Key statistics

Satellite OBJECT C at a glance.

Uptime

168

Days in orbit

Revolutions

≈ 15.1

Per day

Orbit

SSO

Sun Synchronous Orbit

Inclination

97.6

Latest

Satellite identification and parameters

Extended collection of information and parameters for OBJECT C.

Object identification

Identified? True

Debris? False

Object name: OBJECT C

International designator: 2025-013C

Object number (NORAD): 62731

Object ID (CCSDS): 62731

Country: PEOPLES REPUBLIC OF CHINA (PRC)

Current information (Y/N): Y

RCS size: MEDIUM

Orbital parameters

Period: 95.498 minutes

Inclination: 97.6218 deg

SMA: 6920.785 km

Apoapsis: 554.151 km

Periapsis: 531.15 km

RAAN: 353.2945 deg

Eccentricy: 0.0016617

Argument of periapsis: 113.1411 deg

Mean anomaly: 247.157 deg

Mean motion: 15.07890126 rev/day

Mean motion (dot): 0.00003183 rev/day2

B* drag term: 0.00021108 1/REarth

Two-line elements (TLE)

Creation date: July 6, 2025, 11:06 p.m.

Reference frame: TEME

Reference center: EARTH

Epoch: July 6, 2025, 8:48 p.m. UTC

TLE line 0: 0 OBJECT C

TLE line 1: 1 62731U 25013C 25187.86668746 .00003183 00000-0 21108-3 0 9994

TLE line 2: 2 62731 97.6218 353.2945 0016617 113.1411 247.1570 15.07890126 25235

Live tracking on map

Real-time ground track for satellite OBJECT C.

In-orbit conjunctions

There are no conjunctions computed for OBJECT C, at the moment. Check back to stay up to date, as we update our databases every day.

Go to all conjunctions

Associated space launch

Carried 5 satellites to sun synchronous orbit: * Yunyao-1 37 to 40 * Jitianxing A-05

OBJECT C was lifted into orbit during the mission ‘Ceres-1 | 5 satellites’, on board a Ceres-1 space rocket.

The launch took place on Jan. 20, 2025, 10:11 a.m. from Launch Area 95A.

For more information about the launch, click the button.

Launch to space Ceres-1 | 5 satellites
Ceres-1 | 5 satellites

Agency: N/A

Status: Launch Successful

Launch date: Jan. 20, 2025, 10:11 a.m. UTC

Rocket: Ceres-1

Launch pad: Launch Area 95A

Location: Jiuquan Satellite Launch Center, People's Republic of China

...

Latest news about this satellite

There are no fresh news available about this satellite. Check back as we update our databases every day.


Newsletter sign-up

Weekly statistics, charts and insights to help you stay on top of the space industry.